FW4242 Weather Reports


time (UTC)temp
F
wind
direction
speed
knots
gust
knots
rain 1hr
in
rain 24hr
in
rain mn
in
humidity
%
barometer
mb
20260507104505 52 298 1.7 7.8 0.00 0.00 0.00 78 1019.5
20260507103003 52 276 1.7 6.1 0.00 0.00 0.00 78 1019.5
20260507101537 53 278 1.7 4.3 0.00 0.00 0.00 79 1019.6
20260507100035 53 301 0.9 5.2 0.00 0.00 0.00 79 1019.7
20260507094531 53 290 1.7 6.1 0.00 0.00 0.00 79 1019.8
20260507093026 53 290 3.5 9.6 0.00 0.00 0.00 79 1019.9
20260507091528 53 283 2.6 7.0 0.00 0.00 0.00 78 1020.0
20260507090022 54 288 0.9 7.8 0.00 0.00 0.00 78 1020.1
20260507084521 54 301 1.7 6.1 0.00 0.00 0.00 78 1020.1
20260507083017 54 8 2.6 5.2 0.00 0.00 0.00 78 1020.1
20260507081516 54 283 0.9 5.2 0.00 0.00 0.00 79 1020.1
20260507080015 54 312 2.6 7.0 0.00 0.00 0.00 79 1020.0
20260507074511 54 307 3.5 6.1 0.00 0.00 0.00 80 1020.1
20260507073010 54 288 0.9 5.2 0.00 0.00 0.00 81 1020.0
20260507071512 54 307 1.7 6.1 0.00 0.00 0.00 81 1019.9
20260507070013 54 284 0.0 5.2 0.00 0.00 0.00 81 1019.8
20260507064546 54 278 3.5 7.0 0.00 0.00 0.00 80 1019.8
20260507063037 54 292 3.5 7.8 0.00 0.00 0.00 80 1019.8
20260507061531 55 297 3.5 7.0 0.00 0.00 0.00 80 1020.0
20260507060030 55 285 1.7 8.7 0.00 0.00 0.00 80 1020.0
20260507054530 55 281 3.5 6.1 0.00 0.00 0.00 80 1019.9
20260507053026 55 294 0.0 6.1 0.00 0.00 0.00 80 1019.9
20260507051522 55 309 2.6 6.1 0.00 0.00 0.00 79 1019.9
20260507050028 56 285 2.6 7.0 0.00 0.00 0.00 79 1019.9
20260507044519 56 334 3.5 9.6 0.00 0.00 0.00 78 1020.0
20260507043018 56 291 3.5 10.4 0.00 0.00 0.00 78 1019.8
20260507041513 57 328 4.3 9.6 0.00 0.00 0.00 77 1019.7
20260507040010 57 294 4.3 13.0 0.00 0.00 0.00 77 1019.5
20260507034509 58 328 3.5 12.2 0.00 0.00 0.00 77 1019.1
20260507033007 58 334 1.7 12.2 0.00 0.00 0.00 77 1019.0
20260507031504 59 329 1.7 9.6 0.00 0.00 0.00 77 1018.8
20260507030004 59 284 2.6 10.4 0.00 0.00 0.00 76 1018.6
20260507024502 60 297 0.9 5.2 0.00 0.00 0.00 76 1018.4
20260507023001 60 304 0.9 6.1 0.00 0.00 0.00 75 1018.3
20260507021533 61 283 2.6 7.8 0.00 0.00 0.00 74 1018.3
20260507020030 62 348 3.5 10.4 0.00 0.00 0.00 73 1018.4
20260507014537 63 307 3.5 10.4 0.00 0.00 0.00 73 1018.6
20260507013034 64 282 4.3 9.6 0.00 0.00 0.00 72 1018.6
20260507011532 64 321 3.5 7.8 0.00 0.00 0.00 71 1018.5
20260507010029 65 310 2.6 9.6 0.00 0.00 0.00 70 1018.5
20260507004520 65 23 4.3 8.7 0.00 0.00 0.00 71 1018.3
20260507003019 66 326 1.7 7.8 0.00 0.00 0.00 72 1018.3
20260507001526 67 339 1.7 5.2 0.00 0.00 0.00 71 1018.3
20260507000018 66 306 0.9 7.0 0.00 0.00 0.00 71 1018.4
20260506234517 67 328 0.9 4.3 0.00 0.00 0.00 68 1018.3
20260506233015 67 59 0.9 3.5 0.00 0.00 0.00 68 1018.3
20260506231513 67 46 0.0 3.5 0.00 0.00 0.00 68 1018.4
20260506230011 67 288 2.6 5.2 0.00 0.00 0.00 68 1018.5
20260506224509 66 328 0.9 4.3 0.00 0.00 0.00 69 1018.7
20260506223007 67 320 2.6 5.2 0.00 0.00 0.00 68 1018.9
20260506221504 67 245 0.0 3.5 0.00 0.00 0.00 68 1018.9
20260506220002 67 147 0.0 3.5 0.00 0.00 0.00 70 1019.0
20260506214600 66 115 0.9 3.5 0.00 0.00 0.00 72 1018.9
20260506213053 64 183 0.0 2.6 0.00 0.00 0.00 75 1019.0
20260506211552 64 4 0.0 1.7 0.00 0.00 0.00 74 1019.2
20260506210050 62 296 1.7 4.3 0.00 0.00 0.00 77 1019.3
20260506204549 62 19 0.0 3.5 0.00 0.00 0.00 78 1019.3
20260506203017 62 332 0.9 3.5 0.00 0.00 0.00 78 1019.3
20260506201519 61 29 0.0 3.5 0.00 0.00 0.00 78 1019.3
20260506200013 61 59 0.9 2.6 0.00 0.00 0.00 78 1019.4
20260506194513 60 325 0.9 4.3 0.00 0.00 0.00 79 1019.6
20260506193014 61 224 0.0 2.6 0.00 0.00 0.00 79 1019.7
20260506191510 61 293 0.9 3.5 0.00 0.00 0.00 79 1019.5
20260506190007 61 274 0.9 4.3 0.00 0.00 0.00 79 1019.6
20260506184504 60 109 0.0 3.5 0.00 0.00 0.00 80 1019.5
20260506183003 59 341 0.0 0.9 0.00 0.00 0.00 81 1019.4
20260506181502 59 242 0.9 2.6 0.00 0.00 0.00 81 1019.5
20260506180057 59 48 0.0 0.9 0.00 0.00 0.00 81 1019.5
20260506174557 59 294 0.0 1.7 0.00 0.00 0.00 80 1019.5
20260506173124 58 125 0.0 1.7 0.00 0.00 0.00 81 1019.2
20260506171556 58 292 0.9 2.6 0.00 0.00 0.00 81 1019.2
20260506170046 57 254 0.0 4.3 0.00 0.00 0.00 83 1019.2
20260506164554 57 293 0.9 3.5 0.00 0.00 0.00 82 1019.1
20260506163047 57 336 1.7 3.5 0.00 0.00 0.00 83 1019.3
20260506161544 57 252 0.0 0.9 0.00 0.00 0.00 83 1019.0
20260506160045 57 169 0.0 2.6 0.00 0.00 0.00 83 1018.8
20260506154548 56 123 0.0 2.6 0.00 0.00 0.00 85 1018.5
20260506153046 55 290 0.0 3.5 0.00 0.00 0.00 86 1019.1
20260506151540 55 315 0.9 4.3 0.00 0.00 0.00 86 1019.3
20260506150036 55 309 2.6 6.1 0.00 0.00 0.00 86 1019.2
20260506144538 55 285 2.6 5.2 0.00 0.00 0.00 85 1019.0
20260506143036 55 349 1.7 3.5 0.00 0.00 0.00 86 1018.9
20260506141533 55 331 0.0 3.5 0.00 0.00 0.00 86 1018.4
20260506140028 56 292 0.0 3.5 0.00 0.00 0.00 86 1018.6
20260506134526 56 297 0.0 0.9 0.00 0.00 0.00 86 1018.4
20260506133026 55 285 0.0 0.0 0.00 0.00 0.00 86 1018.3
20260506131530 55 262 0.0 0.9 0.00 0.00 0.00 86 1018.1
20260506130117 55 252 0.0 0.0 0.00 0.00 0.00 86 1017.9
20260506124558 55 285 0.0 0.0 0.00 0.00 0.00 86 1017.8
20260506123048 56 248 0.0 0.9 0.00 0.00 0.00 86 1017.7
20260506121547 56 290 0.9 3.5 0.00 0.00 0.00 86 1017.7
20260506120046 56 294 0.0 2.6 0.00 0.00 0.00 86 1017.6
20260506114544 56 294 0.0 1.7 0.00 0.00 0.00 85 1017.5
20260506113050 56 288 0.9 2.6 0.00 0.00 0.00 85 1017.3
20260506111541 56 287 0.9 5.2 0.00 0.00 0.00 85 1017.3
20260506110043 56 332 0.9 3.5 0.00 0.00 0.00 85 1017.0